Theta_e
349 351 353 354 357 359 359 360 361 360 361 362 361 360 359 359 359 359 361 359 351 344 340 339 338 337 337 337 337 337 336 336 336 333 334 333 335 343 345 342 337 335 338 343 345 348 348 347 349 355 354 347 345 345 344 344 343 344 344 341 343 344 344
348 349 352 354 355 358 360 360 361 361 361 362 362 361 359 359 360 360 362 359 352 345 341 339 340 339 339 340 339 339 339 339 339 336 335 334 333 339 345 345 342 337 336 345 351 352 352 349 342 347 353 350 345 345 344 345 344 343 345 344 343 341 340
348 349 351 352 353 355 359 361 360 361 360 362 363 362 361 360 361 361 361 360 355 348 344 340 341 341 342 343 343 343 344 343 343 340 339 338 335 337 344 345 344 341 338 342 351 353 353 351 342 339 347 348 347 347 344 344 345 344 344 344 344 344 339
347 348 349 350 351 354 358 360 360 360 361 361 362 362 361 361 361 362 362 361 356 351 346 342 341 342 343 345 346 346 346 345 346 344 343 343 339 337 343 344 340 344 346 346 349 352 353 352 345 339 342 344 345 347 345 344 345 345 344 343 343 346 341
342 345 348 349 350 353 357 360 361 361 360 360 361 362 362 362 362 362 363 362 359 352 347 344 342 342 342 344 346 345 346 346 345 343 342 343 342 338 339 342 340 341 349 351 351 353 353 350 345 341 341 342 341 343 344 343 345 345 344 343 343 346 347
338 340 344 348 349 352 356 359 360 361 360 360 361 362 363 362 362 363 363 364 363 358 352 347 344 342 342 343 345 346 347 346 343 342 341 340 341 339 336 340 343 342 348 354 353 354 353 346 342 343 342 341 342 343 345 345 345 346 344 343 343 345 350
335 337 340 344 348 350 353 356 359 361 359 358 360 362 362 362 362 363 363 364 364 362 358 351 346 344 343 344 346 347 346 345 344 342 343 341 338 339 338 338 342 343 347 353 353 355 354 345 341 343 341 342 344 346 349 349 346 347 345 342 343 343 346
335 335 337 341 345 349 351 352 355 359 360 359 360 361 362 362 362 362 363 364 364 363 361 357 351 347 343 344 345 347 346 346 346 344 345 344 341 341 343 341 340 341 345 352 353 354 354 347 342 342 342 344 346 345 349 350 346 343 345 343 342 342 343
334 335 338 341 342 346 348 351 354 357 359 358 359 360 361 361 362 362 363 364 364 364 363 360 357 351 346 345 345 347 347 346 347 345 345 347 345 344 347 347 344 341 343 349 353 353 352 350 346 343 340 343 346 342 344 347 345 341 341 342 342 341 344
334 335 338 341 342 343 346 348 351 357 359 359 358 360 361 361 361 362 363 363 364 364 363 362 361 358 350 346 346 346 348 347 347 347 346 348 349 348 350 352 350 345 341 346 353 353 351 350 350 347 340 339 341 339 338 341 341 339 339 339 341 341 342
336 337 339 341 341 342 342 344 351 355 358 360 358 359 361 361 362 363 362 363 363 364 364 362 362 361 355 348 348 349 348 348 348 349 347 349 353 353 352 354 354 350 344 344 351 356 353 348 350 350 343 337 338 339 337 338 338 338 338 339 340 341 341
336 340 341 342 343 343 342 345 352 357 359 360 359 359 361 361 362 362 361 362 363 362 364 362 361 362 359 355 353 351 349 348 348 349 348 349 354 356 355 355 356 355 352 347 349 355 355 350 346 347 343 337 337 338 337 337 337 337 337 339 342 343 341
337 341 344 345 346 345 346 350 355 359 359 360 360 359 360 361 361 361 361 361 363 363 363 362 361 363 362 360 358 354 350 348 346 348 352 352 353 357 356 355 355 356 355 353 350 352 356 354 347 342 339 337 338 338 338 337 337 338 336 338 343 345 343
335 338 341 343 344 345 347 352 357 360 360 361 361 358 359 361 360 360 361 361 362 363 363 362 361 363 363 363 361 356 349 347 345 347 353 356 354 355 358 356 354 354 357 357 354 352 354 355 352 345 339 338 337 337 338 338 337 338 337 335 338 342 342
337 335 336 339 344 346 347 351 356 361 361 361 359 358 358 360 360 360 360 361 361 361 362 362 361 363 365 363 361 357 350 346 346 345 350 355 356 355 357 358 355 354 357 358 357 355 353 354 356 352 345 341 338 338 340 340 337 336 337 336 335 337 339
341 340 339 341 344 347 349 351 355 359 361 362 360 359 358 358 360 360 360 361 361 360 360 362 362 362 365 364 362 360 355 350 347 346 347 352 356 356 356 358 358 355 356 358 358 356 354 352 354 356 353 348 343 339 339 342 339 336 335 335 334 334 337
341 342 345 343 345 347 348 350 353 357 361 362 359 359 358 358 359 360 360 360 360 360 360 361 362 363 364 365 365 363 359 353 348 345 346 350 354 354 354 357 359 356 356 359 359 358 356 354 354 356 357 355 352 346 342 342 341 338 336 335 335 334 335
337 340 344 346 347 349 350 350 351 354 359 361 360 359 357 357 359 359 359 359 359 359 359 361 362 363 364 365 367 365 361 356 350 346 344 346 350 350 350 354 358 358 358 359 360 359 357 356 356 355 357 358 359 356 352 345 340 339 336 335 335 334 335
342 344 347 349 350 351 350 347 346 350 355 359 361 360 357 356 358 360 359 359 359 359 359 360 363 363 363 366 366 365 362 358 354 348 343 344 347 348 348 350 356 360 360 360 362 361 358 357 357 357 357 358 359 361 359 354 348 342 338 335 335 335 334
349 349 350 352 352 353 353 352 352 356 359 358 357 359 360 357 357 359 359 358 359 359 358 360 362 363 364 365 366 364 361 359 357 350 345 344 344 346 347 347 350 357 361 362 362 361 358 356 357 357 356 357 358 360 361 361 357 351 343 338 336 336 336
344 346 346 349 352 354 356 359 361 362 363 361 356 356 360 359 357 358 359 358 359 360 359 359 361 363 364 366 366 363 360 359 359 353 347 345 343 344 345 345 346 352 358 361 363 361 355 352 356 357 355 355 357 359 361 362 361 358 352 343 337 337 337
340 341 342 345 349 352 356 360 362 363 365 365 362 358 357 359 358 357 358 358 358 359 360 360 360 363 365 366 366 363 359 358 359 355 349 344 344 343 344 345 344 347 352 358 362 362 357 350 352 356 355 352 353 357 361 361 360 358 355 346 340 339 339
336 337 340 343 346 350 355 359 362 364 364 364 362 358 354 357 359 357 358 358 358 359 360 359 360 363 365 365 365 364 360 358 357 354 349 346 344 343 343 344 345 345 348 354 359 362 360 354 352 354 355 354 352 353 357 359 359 357 352 346 342 340 339
334 336 340 344 346 349 354 359 362 364 362 359 357 355 353 356 358 358 358 358 358 359 359 359 361 363 364 364 364 363 360 357 355 352 350 347 345 344 343 343 345 345 346 348 353 359 362 360 356 355 355 355 354 351 351 355 358 354 349 345 342 340 338
333 338 344 347 347 349 355 359 361 362 360 356 355 353 351 354 357 359 359 358 358 359 360 359 361 363 363 363 364 364 361 358 357 353 350 348 345 345 344 343 343 345 345 346 349 354 359 361 361 360 358 357 357 355 351 351 354 353 351 347 343 339 339
333 340 346 348 348 351 356 359 359 360 358 354 354 352 351 353 358 359 359 359 358 359 360 359 359 363 365 364 365 365 363 360 357 354 350 348 346 347 348 345 344 345 345 345 348 352 357 360 361 362 361 359 359 358 355 352 353 352 351 348 343 340 340
335 341 346 348 350 353 356 359 359 360 359 356 354 353 352 354 357 358 358 359 358 358 359 359 359 365 367 366 365 366 366 364 359 354 351 348 347 349 350 347 346 345 344 346 350 353 356 358 359 362 362 360 360 359 359 357 354 350 347 344 343 341 341
336 343 346 350 351 353 356 358 358 360 360 357 354 354 355 355 356 357 358 358 357 358 359 360 362 366 366 364 364 366 367 366 360 354 353 353 350 350 351 349 348 349 347 348 352 353 354 355 357 360 361 360 360 360 360 360 357 353 348 344 344 343 343
333 338 345 349 351 353 356 359 358 359 359 357 354 355 356 355 355 357 358 358 357 358 360 362 364 366 365 362 362 365 367 365 360 354 356 358 353 350 351 350 350 352 351 351 353 355 354 354 355 360 362 361 361 360 361 362 361 359 353 349 348 347 346
331 336 343 348 350 353 357 359 359 359 358 356 356 356 355 355 356 357 358 358 358 359 362 364 365 366 364 361 362 364 365 365 360 354 358 360 354 350 351 350 350 352 353 353 353 355 356 355 354 357 361 362 361 361 361 362 363 362 359 355 353 350 350
330 335 340 345 349 352 357 359 360 360 358 357 356 356 355 356 358 359 359 360 360 360 363 366 367 367 365 362 362 362 363 364 360 356 358 358 353 350 351 350 350 351 352 353 352 354 357 358 357 357 359 362 362 362 361 362 363 362 361 360 357 354 353
329 334 339 344 348 352 357 359 361 361 361 358 357 358 358 358 359 360 362 363 363 362 364 367 369 368 366 364 363 362 362 364 362 358 357 356 353 350 349 349 350 351 352 352 352 353 355 358 360 361 362 362 363 363 363 363 363 362 362 361 360 358 358
328 332 337 341 344 349 356 359 360 360 361 360 360 359 359 359 361 362 364 365 364 363 365 368 369 368 365 364 363 362 362 364 364 362 360 358 357 355 352 351 351 351 352 353 353 355 356 357 361 364 363 362 362 362 362 363 363 362 362 361 361 361 360
326 330 335 339 342 348 355 358 360 360 361 362 362 361 361 362 362 363 364 365 364 364 367 369 368 366 365 365 364 363 363 364 364 363 363 362 361 361 359 357 357 355 354 353 354 356 359 361 362 363 363 362 362 362 363 364 363 363 363 362 361 361 361
325 327 331 336 340 345 352 357 359 360 361 362 362 362 361 362 362 363 364 365 364 365 367 368 368 366 366 367 366 365 365 365 364 364 365 365 365 365 364 363 362 362 361 358 355 355 359 362 363 362 362 362 363 362 364 364 364 364 364 363 363 362 362
324 326 329 334 338 343 349 354 357 360 360 360 361 362 362 363 363 364 364 364 364 365 367 368 367 367 367 368 367 365 365 365 364 364 366 366 366 366 365 363 363 365 365 364 360 356 358 361 363 363 363 362 362 363 364 364 364 364 364 364 364 363 363
322 325 327 331 335 341 346 351 355 358 359 360 361 362 363 364 364 365 364 364 364 365 366 366 366 367 367 366 366 365 364 365 364 364 365 367 366 366 366 363 361 363 365 365 363 359 357 358 361 362 362 361 362 363 364 364 365 365 365 365 364 364 364
321 325 326 328 332 339 344 347 351 354 355 357 360 361 362 363 364 364 364 365 364 364 366 366 365 365 366 365 365 364 364 364 365 365 365 366 366 367 366 363 359 360 362 363 364 362 359 357 358 360 362 362 362 363 364 364 365 365 366 366 365 365 365
Wind_Speed
25 24 25 25 26 28 31 33 34 34 35 36 37 37 37 37 37 36 36 39 43 43 44 44 44 43 42 41 40 38 37 36 35 34 33 32 30 27 26 25 25 24 22 20 19 18 18 17 16 14 13 12 12 12 12 11 10 9 8 8 8 8 7
26 25 25 24 24 27 29 32 33 34 35 36 37 38 38 38 38 38 37 40 43 44 44 44 43 43 41 40 39 38 37 36 35 34 33 33 32 30 27 25 25 25 24 20 17 17 17 18 18 16 15 14 13 13 13 12 12 11 10 9 8 8 9
26 25 25 26 26 27 29 32 33 34 34 35 36 38 39 39 40 40 39 40 43 43 43 44 43 43 41 40 39 38 37 36 35 35 35 34 34 32 28 27 25 24 24 22 19 17 18 19 19 18 17 15 14 14 14 13 13 12 11 10 9 9 9
26 26 25 27 28 28 28 31 33 34 34 35 37 37 38 39 39 39 39 40 43 44 44 45 44 43 42 40 40 39 38 37 36 36 35 33 33 32 29 28 27 24 22 22 21 19 18 19 19 19 18 17 16 15 15 15 14 14 13 12 11 10 9
27 27 27 27 28 28 28 30 33 34 35 35 36 36 37 37 38 38 38 39 41 43 44 44 44 43 43 41 40 39 39 38 36 35 34 32 32 32 31 29 28 26 22 21 21 21 20 21 20 20 20 19 18 17 16 16 16 15 15 13 13 12 10
27 28 28 28 28 28 28 30 33 35 35 35 36 36 35 36 37 37 37 37 38 40 41 43 44 44 44 42 41 41 40 38 37 35 33 33 32 32 32 30 28 27 24 22 21 21 23 23 21 20 22 21 20 19 17 17 17 16 16 15 15 14 12
27 27 28 28 29 29 28 28 32 35 34 33 33 34 34 35 36 36 36 36 37 38 40 42 43 44 45 44 43 42 41 39 38 36 34 33 33 33 32 31 30 28 26 23 23 22 23 24 23 22 22 22 21 21 19 19 19 18 18 17 16 16 14
26 26 28 29 29 29 28 29 31 33 33 32 32 34 35 35 36 37 37 37 37 38 39 40 42 44 45 45 44 43 42 40 39 37 35 33 33 33 32 31 31 30 28 25 24 24 24 24 24 23 23 22 22 22 21 21 21 20 19 18 18 17 15
25 24 26 28 29 28 28 30 30 31 33 33 33 34 35 35 36 37 38 37 37 39 40 40 40 42 45 46 46 45 43 41 40 38 37 35 34 33 32 31 31 31 30 27 25 25 25 24 24 25 25 24 23 24 23 23 23 22 21 20 20 18 17
21 23 25 26 27 28 27 26 26 28 32 35 34 35 36 36 36 37 36 37 37 38 39 39 38 40 44 46 46 46 45 43 41 39 38 36 35 34 32 30 30 31 31 29 26 25 27 26 25 26 27 27 26 26 26 25 25 25 24 22 21 20 19
11 15 23 25 24 26 27 27 28 30 33 36 36 35 36 36 36 36 37 37 37 37 38 38 38 39 42 45 46 46 46 45 43 41 40 37 34 33 32 30 29 30 31 30 27 25 27 28 28 27 29 29 28 28 28 27 27 27 26 25 23 23 22
3 5 15 19 19 19 21 24 31 33 33 34 34 33 34 35 35 35 36 36 35 35 36 37 38 39 41 42 43 45 46 46 44 43 41 39 35 32 32 31 29 29 30 30 29 27 26 29 30 30 31 30 30 29 29 29 28 28 27 26 25 24 24
3 3 8 9 11 12 14 18 25 29 30 31 31 31 32 34 34 33 34 35 34 33 35 36 37 38 39 40 41 43 46 46 46 44 41 39 37 33 31 32 30 29 28 29 29 28 27 27 30 32 32 31 30 30 30 29 29 29 28 27 26 25 25
1 5 7 7 8 10 12 16 20 24 27 29 30 30 31 32 33 33 33 34 34 33 34 36 37 38 39 39 40 43 46 46 46 44 40 39 38 34 32 32 31 30 29 28 29 29 28 27 28 31 32 32 31 31 30 30 30 29 29 28 27 26 26
2 4 8 9 10 11 13 16 19 23 26 28 29 30 30 30 31 32 32 33 34 34 34 35 37 38 38 39 41 43 46 46 45 45 42 39 38 36 34 32 32 31 30 29 29 30 29 28 27 28 31 31 31 31 30 30 31 31 30 30 29 27 27
5 6 2 2 4 6 9 13 16 20 24 26 27 28 28 29 31 32 33 34 35 35 34 35 37 38 38 39 41 42 44 45 45 45 44 41 39 39 36 33 32 32 31 31 30 30 30 30 28 27 29 31 32 32 31 31 32 32 31 30 30 29 28
9 10 7 4 4 5 3 6 11 16 21 25 27 28 28 29 30 32 33 33 34 35 35 35 37 38 38 37 38 40 43 45 46 45 45 43 41 41 39 35 32 32 33 32 31 31 31 31 30 29 28 29 31 32 33 33 33 33 32 31 30 29 28
15 11 8 5 7 9 9 7 8 12 17 22 25 26 29 30 30 31 33 34 35 36 36 35 37 38 38 37 37 39 42 45 46 46 46 45 44 44 43 38 34 33 33 33 32 32 32 31 32 31 29 28 28 29 32 34 35 35 34 33 30 29 29
14 11 8 8 10 12 11 11 11 11 13 18 22 25 28 30 31 33 35 35 34 35 35 35 35 37 38 37 37 39 42 44 46 47 47 47 46 46 44 42 38 35 34 33 33 33 33 32 32 33 32 29 28 28 29 31 34 35 35 33 31 29 28
12 12 12 12 13 14 13 12 14 15 15 16 20 24 27 29 31 33 33 32 32 34 35 35 35 36 38 38 38 40 43 42 43 46 47 46 47 47 45 44 42 38 34 33 33 34 36 34 33 33 34 32 30 28 28 28 30 33 35 34 31 29 27
14 15 15 14 14 15 15 14 16 18 18 17 18 22 26 29 31 31 31 32 34 35 36 36 35 36 38 38 38 41 44 41 38 42 46 46 46 47 46 45 45 42 36 33 33 35 38 37 34 34 36 35 33 30 28 28 28 30 32 32 31 29 27
18 18 18 18 19 19 19 18 18 19 20 19 19 20 24 29 31 31 32 33 34 35 36 36 36 36 38 40 40 42 45 43 38 40 45 46 45 47 47 45 45 44 41 35 31 32 36 38 36 35 36 37 36 32 29 28 29 31 32 32 31 28 27
20 21 21 21 20 21 22 22 22 21 21 21 20 20 23 28 31 32 33 34 34 36 36 37 38 39 40 42 42 42 44 45 42 42 44 45 45 46 46 45 44 44 43 39 33 30 33 36 37 36 36 36 37 36 33 29 30 32 34 34 33 29 27
23 23 23 22 19 20 23 25 24 23 22 21 20 21 23 27 31 34 35 35 36 37 37 38 40 41 43 44 43 43 44 45 45 45 45 44 45 46 46 46 44 44 44 43 38 32 29 32 34 35 35 36 36 37 37 33 32 34 35 35 34 31 29
27 25 23 20 18 20 26 27 26 25 23 21 20 20 22 26 31 34 36 37 37 37 39 41 42 44 46 45 42 41 42 43 44 45 44 44 45 45 45 46 45 44 43 43 41 36 30 29 30 31 33 34 33 34 36 35 33 34 34 34 34 32 30
29 26 23 21 18 20 26 28 26 25 23 20 20 20 21 26 31 35 37 38 37 38 40 43 44 45 44 42 40 39 40 41 43 44 43 43 43 44 44 44 43 43 43 42 41 38 33 29 27 28 29 30 30 30 33 34 34 34 33 33 33 32 31
27 23 21 22 19 18 24 26 25 24 21 19 19 19 22 26 31 35 38 38 37 39 41 42 42 41 40 39 39 37 37 38 40 42 41 41 41 42 42 42 42 42 42 41 39 37 35 31 28 26 27 27 27 28 29 31 33 35 35 35 34 33 31
27 22 19 19 17 17 22 25 24 22 20 18 18 19 22 27 32 35 38 39 39 39 38 38 39 39 39 40 38 36 35 36 38 39 38 38 39 40 41 41 40 40 40 39 37 36 36 35 31 27 26 26 26 26 27 28 31 33 34 35 35 33 31
31 26 22 20 18 19 23 25 23 21 19 18 17 18 22 27 31 35 38 40 40 37 34 34 37 38 40 41 38 36 35 35 36 37 35 35 38 39 39 40 39 38 38 37 35 34 35 36 34 29 26 25 26 26 26 26 28 31 33 33 33 32 31
33 28 22 20 21 22 23 23 21 20 18 17 16 18 22 26 29 34 37 38 37 34 31 33 35 37 39 40 37 36 34 34 35 35 33 34 37 38 38 39 38 37 37 36 35 34 33 35 36 33 29 26 25 25 25 25 26 29 32 32 31 32 31
34 30 24 22 23 21 18 19 20 18 16 15 15 18 21 23 27 31 33 33 34 32 30 31 33 35 37 37 36 35 34 32 33 34 32 33 36 37 37 37 37 36 36 36 35 34 33 32 33 33 31 28 25 25 24 24 25 27 29 28 28 29 29
34 31 25 22 23 19 14 15 16 15 14 13 15 18 20 22 25 28 28 28 29 30 29 29 31 33 34 34 34 34 32 30 31 31 31 32 34 35 36 36 36 36 36 36 36 35 34 32 30 29 29 27 25 25 24 23 24 26 27 25 24 24 25
36 33 26 24 25 22 14 12 11 9 11 11 13 16 18 20 22 24 25 26 28 28 28 28 29 31 32 32 31 31 30 30 29 29 30 31 32 32 34 35 35 35 36 36 36 35 33 31 28 26 26 26 25 24 24 24 24 25 27 28 26 25 24
36 35 30 26 26 22 13 9 7 5 7 9 11 14 15 18 20 22 24 25 27 28 28 28 28 29 29 28 28 29 29 29 29 28 29 30 30 30 31 32 32 34 35 36 35 34 31 29 28 27 25 25 24 23 23 24 24 24 26 29 28 27 26
36 35 31 27 26 24 17 10 6 2 2 6 9 13 15 17 18 20 22 25 27 28 28 27 27 27 26 26 26 27 28 28 28 27 26 27 27 26 26 27 28 29 30 31 33 32 29 27 26 26 25 23 23 24 24 24 25 25 26 28 28 25 24
35 34 32 29 27 26 20 14 9 5 3 5 6 9 13 14 16 17 20 23 25 26 26 26 25 25 24 24 24 25 26 26 26 26 25 24 25 25 26 27 27 26 26 27 28 29 28 26 25 25 25 24 24 24 24 25 25 25 25 27 27 24 22
33 33 33 32 30 27 21 16 14 13 8 5 5 7 9 10 13 16 18 20 22 24 24 24 24 24 24 23 22 24 25 25 25 25 24 23 24 25 27 28 28 27 27 26 26 27 29 30 29 27 26 26 25 25 26 26 25 24 23 25 26 24 22
32 31 32 32 31 28 23 18 17 18 15 10 7 8 8 8 8 11 14 17 20 22 22 22 23 22 22 21 21 22 24 24 23 25 25 23 23 24 25 27 29 29 29 28 27 28 29 30 30 29 28 27 27 28 28 27 27 25 23 23 24 23 22
Wind_Direction
200 202 193 197 198 192 190 190 190 191 191 192 192 192 193 192 192 192 192 202 212 215 216 217 218 219 219 221 222 223 224 225 227 228 227 228 226 223 226 230 233 232 225 223 227 227 225 225 219 212 216 216 211 208 205 206 208 205 205 200 200 204 190
198 200 190 192 201 200 193 190 190 191 192 193 193 193 194 192 192 192 193 202 212 215 216 217 217 218 218 219 220 221 222 223 224 226 226 227 227 224 223 225 228 230 226 217 217 221 220 224 225 218 215 215 212 210 208 206 209 208 207 205 205 209 199
193 197 191 188 199 206 197 189 190 192 193 194 194 194 195 194 193 193 193 201 210 214 216 217 217 217 217 217 219 220 221 222 222 224 225 226 227 226 222 223 225 227 226 218 210 214 217 220 224 222 219 218 215 212 211 209 209 211 210 209 209 212 208
193 197 194 191 196 204 199 191 190 192 194 195 196 197 196 195 194 194 195 201 209 212 214 216 217 216 217 217 218 219 220 221 222 223 223 222 225 225 222 223 224 221 221 218 211 209 213 217 221 221 221 221 218 215 214 211 211 212 210 211 213 215 215
197 196 196 196 196 199 199 194 192 192 195 196 197 197 197 196 195 194 195 199 207 213 215 216 215 215 217 217 218 219 220 221 221 220 218 216 220 224 222 222 224 221 216 214 212 208 210 218 221 219 218 219 219 219 217 213 213 214 211 209 214 216 218
202 198 198 198 196 197 199 198 195 193 195 195 196 196 196 196 196 196 196 197 201 207 212 214 214 215 216 217 217 218 219 220 219 217 216 215 216 221 222 220 221 222 216 211 210 208 212 221 221 218 218 216 217 218 218 217 215 216 215 212 214 217 216
206 202 200 199 196 196 200 204 200 195 195 194 194 195 195 196 197 196 197 197 198 201 207 211 213 214 215 215 216 217 218 218 217 216 216 215 215 218 221 221 220 221 218 211 210 208 212 221 221 220 222 218 216 216 216 220 220 217 218 216 215 219 218
207 205 201 201 200 196 198 206 205 196 193 193 193 194 195 195 197 197 197 197 197 198 202 205 208 212 214 214 215 216 217 217 217 217 216 215 215 216 218 220 221 221 218 213 211 210 213 220 221 220 222 220 218 218 216 218 223 221 221 221 219 222 223
205 205 203 203 202 198 198 205 206 196 190 191 193 194 194 195 196 198 198 197 196 197 199 200 202 207 212 213 215 215 216 216 217 218 217 215 216 216 215 217 220 220 219 214 212 214 215 218 220 220 222 221 220 224 221 220 224 224 223 224 223 222 223
202 204 205 204 203 203 202 204 206 199 191 190 193 193 194 195 196 198 198 198 197 197 197 196 195 201 209 213 214 214 214 216 217 218 218 215 214 214 212 212 216 219 221 216 211 214 218 217 217 220 224 223 222 227 228 225 227 228 227 227 227 225 225
207 207 202 199 202 209 209 200 197 199 195 192 193 194 194 195 195 196 198 199 199 197 195 194 192 196 206 211 211 212 214 216 216 216 217 215 211 210 209 206 210 216 220 219 211 209 217 219 216 218 224 225 224 227 230 230 230 231 230 230 230 230 229
276 205 186 189 198 212 214 197 188 193 195 193 194 193 194 196 196 197 198 199 200 198 195 194 192 193 201 205 205 209 213 214 214 214 216 214 207 204 205 203 204 209 215 217 212 206 212 219 218 218 224 226 225 226 230 231 231 232 232 230 230 232 232
328 157 161 183 199 210 214 196 184 188 193 193 194 195 195 197 197 198 198 198 199 199 195 194 193 192 196 198 199 205 210 213 214 213 211 210 205 201 201 202 202 204 208 212 212 206 206 214 218 220 224 227 226 226 229 231 232 233 234 231 228 232 235
349 159 166 188 203 206 207 198 188 188 192 193 195 197 198 198 198 198 198 197 198 199 197 195 193 192 194 194 195 203 210 213 215 212 207 206 205 200 199 201 201 202 205 207 209 207 204 208 215 219 224 227 228 227 228 230 232 232 235 235 231 231 236
313 196 182 178 183 193 198 199 195 192 194 196 198 199 199 199 199 198 198 197 197 199 198 196 194 193 193 194 195 203 210 212 213 213 208 205 204 200 198 200 201 201 203 205 207 206 205 206 210 217 222 225 228 228 227 229 232 233 233 235 235 233 235
342 336 325 164 176 192 193 198 201 198 198 199 201 202 202 200 199 198 198 198 197 198 198 196 195 195 194 195 196 201 208 211 212 212 210 206 205 204 201 199 200 201 202 205 206 205 206 206 207 212 219 223 226 228 228 229 233 236 235 235 236 236 235
328 329 326 322 321 322 288 220 216 209 204 204 204 204 204 203 201 200 199 199 198 197 197 196 196 195 195 195 195 198 205 209 211 212 211 207 207 207 205 200 199 202 203 204 207 207 207 207 206 209 214 219 223 227 228 230 233 237 239 238 237 239 239
303 303 304 306 313 317 315 293 262 231 216 214 212 208 207 205 203 201 200 200 199 197 196 196 196 195 196 195 193 196 204 208 210 213 213 211 209 211 211 205 200 202 203 203 206 207 206 207 207 208 210 214 218 221 226 231 235 238 241 241 240 240 240
306 306 318 325 315 310 313 312 301 279 246 230 222 216 212 208 205 203 202 201 199 197 196 196 195 195 196 195 193 197 205 208 210 212 213 213 212 213 214 209 203 202 203 203 204 207 208 209 209 209 209 211 215 217 222 229 234 237 240 243 242 241 239
331 329 328 323 312 311 315 308 295 286 273 253 237 227 220 213 209 206 203 200 198 197 197 196 196 195 195 194 195 200 206 208 209 212 213 213 213 214 214 213 209 204 203 203 204 208 212 213 212 213 214 213 214 216 219 224 231 237 241 242 242 241 238
336 331 323 315 305 303 304 297 287 280 274 265 252 238 225 217 213 208 202 199 197 196 197 196 196 196 194 192 195 202 208 209 208 211 214 213 213 214 215 216 214 209 205 204 206 211 218 219 216 217 220 219 217 218 219 222 227 234 240 242 241 240 238
332 324 318 314 307 301 299 294 288 283 276 267 258 247 230 218 213 208 202 199 197 196 195 195 196 196 193 193 197 203 209 210 208 210 214 214 212 214 215 216 216 214 211 208 207 212 220 223 221 220 223 225 223 221 221 223 227 231 237 243 242 238 236
328 322 317 310 301 297 300 298 292 288 282 270 258 248 233 219 210 205 202 199 196 195 194 194 196 196 195 197 199 203 209 212 212 213 214 214 213 213 215 216 216 216 215 212 209 210 218 224 224 223 225 227 227 226 225 225 229 234 238 243 244 241 236
327 322 316 307 298 299 303 301 297 294 288 277 261 246 232 219 208 202 200 197 195 193 193 194 195 196 199 201 200 204 210 213 214 215 215 215 214 214 214 216 216 217 218 217 215 212 214 221 224 224 226 228 230 231 231 229 232 238 242 244 246 244 239
328 321 312 305 302 308 309 303 300 298 291 278 263 246 231 218 207 201 199 197 194 192 192 195 196 197 202 204 200 202 209 212 214 216 216 216 216 215 215 216 217 218 219 221 220 216 214 218 220 222 225 228 229 232 236 235 234 239 244 245 247 246 242
329 324 318 310 304 311 312 305 301 300 289 272 260 247 229 217 206 200 199 196 194 193 193 197 199 198 200 201 198 199 205 209 213 216 217 217 216 215 215 216 217 219 220 222 222 220 217 217 218 220 224 226 227 229 235 238 237 238 242 244 245 246 244
333 327 324 319 312 316 316 307 299 295 285 269 258 244 226 215 206 201 200 197 195 196 196 198 199 195 194 197 197 197 200 204 211 216 216 217 217 215 216 217 217 219 221 222 222 222 219 218 218 221 224 226 226 226 230 236 239 240 243 245 247 247 246
340 333 329 325 316 314 316 308 296 289 281 267 254 237 220 213 207 202 200 197 198 200 198 196 194 191 194 199 198 195 196 199 209 214 213 213 216 215 216 218 217 218 221 222 222 223 223 222 220 220 223 225 225 225 226 231 238 243 245 246 248 249 247
346 340 337 334 325 317 315 308 295 284 276 264 248 230 217 212 208 203 200 199 200 200 196 193 191 190 197 202 199 194 194 198 208 212 207 207 214 215 215 217 217 217 220 221 221 222 224 226 223 219 220 223 225 226 227 227 233 241 245 246 247 248 248
351 346 343 341 333 323 314 306 294 280 270 259 242 224 215 212 206 201 200 199 200 198 194 192 190 191 198 202 198 194 193 197 206 209 203 203 212 215 214 216 216 216 219 220 220 220 222 226 227 223 220 222 224 226 228 226 229 238 244 246 247 248 247
352 351 350 347 338 325 312 303 294 278 262 249 232 217 210 208 203 200 199 198 197 195 193 190 188 191 197 198 195 194 193 194 202 206 202 204 213 215 214 216 216 216 217 219 220 220 219 221 225 226 223 222 222 224 226 225 227 235 242 245 246 248 249
354 357 357 353 347 341 322 305 292 271 254 238 219 209 207 205 203 201 198 196 194 193 191 188 187 189 193 193 193 193 191 190 197 202 202 205 212 215 215 216 216 215 217 219 220 221 220 219 220 222 221 221 222 222 223 224 225 232 240 245 247 248 249
356 360 359 353 351 352 341 316 295 258 242 230 208 203 206 203 202 201 197 192 191 191 189 187 187 190 193 192 190 190 188 187 190 194 197 202 208 212 213 215 216 216 217 218 218 219 219 218 216 215 217 219 220 220 222 224 223 226 234 240 242 243 245
354 357 357 354 354 360 4 344 314 258 231 222 203 201 205 201 200 202 198 193 191 190 189 189 190 193 193 189 187 186 186 186 188 189 193 197 201 204 208 210 213 215 217 219 218 216 214 213 211 212 214 216 217 217 218 221 221 220 227 235 237 237 240
351 353 354 356 356 3 19 22 354 329 205 204 198 198 204 204 204 204 200 194 191 188 189 192 192 191 188 183 183 184 183 185 188 188 189 192 193 196 201 204 207 211 214 218 221 218 213 210 211 213 214 214 216 216 215 218 222 220 222 231 236 236 238
350 352 356 360 359 4 22 42 41 47 120 174 186 189 195 196 196 196 195 195 192 189 190 191 187 184 183 181 181 183 183 184 186 186 187 189 189 192 199 202 203 206 207 213 220 221 215 212 212 212 213 213 216 219 220 221 225 224 222 228 234 237 240
349 352 356 359 0 5 20 46 61 65 85 128 155 167 177 181 183 185 186 188 190 191 192 190 184 182 183 182 182 185 185 185 186 187 188 189 188 192 201 205 204 204 206 209 216 219 216 214 213 213 215 214 215 219 222 222 225 225 223 226 231 235 239
352 353 353 355 2 8 16 35 56 65 68 77 102 129 141 146 157 172 179 183 187 189 191 190 186 184 184 182 183 187 187 186 187 188 189 190 190 192 201 208 208 207 208 209 213 218 219 218 215 213 214 214 215 218 221 222 222 223 222 222 225 230 234